Flag for Germany Weather past 2 weeks in Mühlacker, Baden-Württemberg, Germany

Now
72 °F

Scattered showers. Broken clouds.


Feels Like: 75 °F
Forecast: 57 / 72 °F
Wind: 2 mph from Northeast

Location: Stuttgart-Echterdingen

Current Time: Aug 29, 2014 at 4:24:29 PM

Latest Report: Aug 29, 2014 at 3:50 PM


Visibility: N/A

Pressure: 30.04 "Hg

Humidity: 69%

Dew point: 61 °F

Location of MühlackerLocation

Historic Weather in Mühlacker — Graph

°F

Mühlacker temperature yesterday

Maximum temperature yesterday: 73 °F (at 3:20 PM)
Minimum temperature yesterday: 52 °F (at 4:20 AM)
Average temperature yesterday: 63 °F

Past Weeks' High & Low Weather Summary

 TemperatureHumidityPressure
High73 °F (Aug 28, 3:20 PM)100% (Aug 25, 6:20 AM)30.18 "Hg (Aug 25, 6:20 AM)
Low45 °F (Aug 25, 5:20 AM)38% (Aug 22, 4:20 PM)29.68 "Hg (Aug 26, 5:50 AM)
Average59 °F75%30.00 "Hg
* Reported Aug 14 3:20 PM — Aug 29 3:20 PM, Mühlacker, Weather by CustomWeather, © 2014

Note: Actual official high and low records may vary slightly from our data, if they occured in-between our weather recording intervals... More about our weather records

Advertising

Mühlacker weather history for previous 24 hours

 ConditionsComfort  
Time TempWeatherWind HumidityBarometerVisibility
3:20 PM
Aug 29
70 °FScattered showers. Scattered clouds.3 mph69%30.07 "HgN/A
2:50 PM72 °FScattered clouds.3 mph61%30.07 "HgN/A
2:20 PM72 °FScattered clouds.3 mph69%30.07 "HgN/A
1:50 PM72 °FScattered clouds.5 mph65%30.07 "HgN/A
1:20 PM70 °FScattered clouds.6 mph69%30.07 "HgN/A
12:50 PM68 °FBroken clouds.5 mph73%30.07 "HgN/A
12:20 PM68 °FBroken clouds.2 mph78%30.07 "HgN/A
11:50 AM64 °FPartly sunny.3 mph88%30.07 "HgN/A
11:20 AM64 °FPartly sunny.3 mph88%30.07 "HgN/A
10:50 AM63 °FPartly sunny.3 mph88%30.07 "HgN/A
10:20 AM61 °FLight rain. Partly sunny.5 mph94%30.07 "HgN/A
9:50 AM61 °FLight rain. Partly sunny.5 mph88%30.07 "HgN/A
9:20 AM61 °FLight rain. Broken clouds.3 mph88%30.07 "HgN/A
8:50 AM61 °FLight rain. Partly sunny.1 mph94%30.07 "HgN/A
8:20 AM59 °FLight rain. Partly sunny.1 mph94%30.07 "HgN/A
7:50 AM59 °FLight rain. Partly sunny.2 mph94%30.04 "HgN/A
7:20 AM57 °FPassing clouds.1 mph94%30.04 "HgN/A
6:50 AM57 °FPartly cloudy.1 mph100%30.04 "HgN/A
6:20 AM57 °FPassing clouds.1 mph100%30.04 "HgN/A
5:50 AM55 °FFog.1 mph94%30.04 "HgN/A
5:20 AM55 °FClear.1 mph100%30.04 "Hg10 mi
4:50 AM57 °FClear.1 mph94%30.04 "Hg10 mi
4:20 AM57 °FClear.3 mph94%30.04 "Hg10 mi
3:50 AM57 °FClear.2 mph94%30.04 "Hg10 mi
3:20 AM57 °FClear.2 mph100%30.04 "Hg10 mi
2:50 AM57 °FClear.1 mph100%30.04 "Hg10 mi
2:20 AM57 °FClear.1 mph94%30.04 "Hg10 mi
1:50 AM59 °FClear.2 mph94%30.04 "Hg10 mi
1:20 AM61 °FClear.1 mph88%30.07 "Hg10 mi
12:50 AM61 °FClear.1 mph88%30.07 "Hg10 mi
12:20 AM61 °FClear.1 mph88%30.07 "Hg10 mi
11:50 PM
Aug 28
61 °FClear.1 mph88%30.07 "Hg10 mi
11:20 PM61 °FClear.2 mph88%30.07 "Hg10 mi
10:50 PM63 °FClear.2 mph88%30.04 "Hg10 mi
10:20 PM64 °FClear.2 mph83%30.07 "Hg10 mi
9:50 PM66 °FClear.2 mph78%30.07 "Hg10 mi
9:20 PM68 °FClear.3 mph73%30.04 "Hg10 mi
8:50 PM68 °FSunny.1 mph73%30.04 "Hg10 mi
8:20 PM70 °FSunny.2 mph69%30.04 "Hg10 mi
7:50 PM70 °FSunny.5 mph69%30.04 "Hg10 mi
7:20 PM70 °FSunny.6 mph69%30.04 "Hg10 mi
6:50 PM72 °FSunny.6 mph61%30.04 "Hg10 mi
6:20 PM73 °FSunny.3 mph53%30.04 "Hg10 mi
5:20 PM73 °FSunny.2 mph47%30.04 "Hg10 mi
4:50 PM73 °FSunny.2 mph50%30.04 "Hg10 mi
4:20 PM73 °FScattered clouds.5 mph53%30.04 "HgN/A
Weather by CustomWeather, © 2014

See weather overviewHow to use our weather pages